DAL2520 KLAX-PHOG

Flight info

Callsign DAL2520
Flight time 5h 10m
Altitude 32000
Route SUMMR2 DINTY DUETS R576 DIALO/N0459F340 R576 DENNS LNDHY1
Aircraft A21N/M-SDE2E3FGHIJ1RWXY/LB1

Departure

Time 2026-05-07 21:46
Airport Los Angeles International Airport (KLAX)

Arrival

Time 2026-05-08 02:56
Airport Kahului International Airport (PHOG)
Time Latitude Longitude Altitude Speed Heading
2026-05-07 21:15 33.94702 -118.40676 98 ft 0 kts 220°
2026-05-07 21:30 33.94702 -118.40675 98 ft 2 kts 220°
2026-05-07 21:30 33.94720 -118.40655 98 ft 3 kts 221°
2026-05-07 21:30 33.94721 -118.40654 98 ft 0 kts 221°
2026-05-07 21:34 33.94736 -118.40637 98 ft 4 kts 235°
2026-05-07 21:34 33.94744 -118.40611 98 ft 4 kts 287°
2026-05-07 21:34 33.94731 -118.40597 100 ft 4 kts 354°
2026-05-07 21:35 33.94709 -118.40595 97 ft 0 kts 354°
2026-05-07 21:39 33.94710 -118.40595 98 ft 1 kts 354°
2026-05-07 21:39 33.94725 -118.40595 97 ft 4 kts
2026-05-07 21:39 33.94756 -118.40589 98 ft 5 kts
2026-05-07 21:40 33.94794 -118.40593 99 ft 6 kts 350°
2026-05-07 21:40 33.94839 -118.40602 99 ft 7 kts 351°
2026-05-07 21:40 33.94867 -118.40554 99 ft 8 kts 81°
2026-05-07 21:40 33.94876 -118.40479 101 ft 9 kts 83°
2026-05-07 21:41 33.94884 -118.40397 99 ft 11 kts 83°
2026-05-07 21:41 33.94894 -118.40305 99 ft 12 kts 83°
2026-05-07 21:41 33.94904 -118.40204 100 ft 13 kts 83°
2026-05-07 21:41 33.94914 -118.40097 100 ft 13 kts 83°
2026-05-07 21:42 33.94925 -118.39989 98 ft 9 kts 83°
2026-05-07 21:42 33.94939 -118.39939 98 ft 4 kts 52°
2026-05-07 21:42 33.94947 -118.39928 98 ft 0 kts 40°
2026-05-07 21:44 33.94948 -118.39928 100 ft 1 kts 40°
2026-05-07 21:44 33.94969 -118.39913 100 ft 6 kts 17°
2026-05-07 21:44 33.95021 -118.39913 100 ft 6 kts 350°
2026-05-07 21:44 33.95042 -118.39946 98 ft 4 kts 266°
2026-05-07 21:45 33.95032 -118.40058 101 ft 41 kts 263°
2026-05-07 21:45 33.94969 -118.40671 103 ft 108 kts 262°
2026-05-07 21:45 33.94850 -118.41821 102 ft 166 kts 262°
2026-05-07 21:45 33.94709 -118.43251 527 ft 171 kts 263°
2026-05-07 21:46 33.94549 -118.44695 1201 ft 172 kts 261°
2026-05-07 21:46 33.94391 -118.46150 1735 ft 182 kts 263°
2026-05-07 21:46 33.94302 -118.47692 2213 ft 192 kts 268°
2026-05-07 21:46 33.94278 -118.49346 2704 ft 202 kts 268°
2026-05-07 21:47 33.94224 -118.51095 3230 ft 211 kts 265°
2026-05-07 21:47 33.94077 -118.52878 3730 ft 219 kts 265°
2026-05-07 21:47 33.93923 -118.54790 3956 ft 242 kts 264°
2026-05-07 21:47 33.93740 -118.56863 4341 ft 257 kts 264°
2026-05-07 21:48 33.93569 -118.59048 4864 ft 265 kts 265°
2026-05-07 21:48 33.93405 -118.61266 5564 ft 267 kts 265°
2026-05-07 21:48 33.93241 -118.63506 6257 ft 269 kts 265°
2026-05-07 21:48 33.93080 -118.65757 6939 ft 271 kts 265°
2026-05-07 21:49 33.92904 -118.68042 7507 ft 277 kts 264°
2026-05-07 21:49 33.92705 -118.70367 8052 ft 282 kts 264°
2026-05-07 21:49 33.92482 -118.72738 8600 ft 287 kts 263°
2026-05-07 21:49 33.92280 -118.75143 9180 ft 289 kts 265°
2026-05-07 21:50 33.92107 -118.77559 9803 ft 291 kts 265°
2026-05-07 21:50 33.91940 -118.80010 10272 ft 299 kts 265°
2026-05-07 21:50 33.91753 -118.82570 10503 ft 316 kts 266°
2026-05-07 21:50 33.91728 -118.85277 10725 ft 332 kts 272°
2026-05-07 21:51 33.91811 -118.88122 10950 ft 348 kts 273°
2026-05-07 21:51 33.91906 -118.91103 11165 ft 364 kts 273°
2026-05-07 21:51 33.92002 -118.94194 11525 ft 374 kts 273°
2026-05-07 21:51 33.92095 -118.97345 12090 ft 379 kts 273°
2026-05-07 21:52 33.92307 -119.00515 12680 ft 381 kts 282°
2026-05-07 21:52 33.93146 -119.03533 13247 ft 381 kts 299°
2026-05-07 21:52 33.94501 -119.06283 13811 ft 383 kts 304°
2026-05-07 21:52 33.95949 -119.08996 14394 ft 387 kts 304°
2026-05-07 21:53 33.97405 -119.11739 14948 ft 390 kts 304°
2026-05-07 21:53 33.98854 -119.14520 15489 ft 394 kts 304°
2026-05-07 21:53 34.00343 -119.17308 16019 ft 396 kts 308°
2026-05-07 21:53 34.02212 -119.19736 16529 ft 396 kts 322°
2026-05-07 21:54 34.04422 -119.21727 17050 ft 398 kts 326°
2026-05-07 21:54 34.06699 -119.23646 17572 ft 401 kts 327°
2026-05-07 21:54 34.08995 -119.25584 18083 ft 404 kts 327°
2026-05-07 21:54 34.11303 -119.27546 18566 ft 407 kts 326°
2026-05-07 21:55 34.13623 -119.29526 19040 ft 410 kts 326°
2026-05-07 21:55 34.15958 -119.31534 19524 ft 413 kts 326°
2026-05-07 21:55 34.18303 -119.33557 19972 ft 416 kts 326°
2026-05-07 21:55 34.20656 -119.35599 20420 ft 418 kts 326°
2026-05-07 21:56 34.23031 -119.37651 20861 ft 421 kts 326°
2026-05-07 21:56 34.25423 -119.39708 21281 ft 423 kts 326°
2026-05-07 21:56 34.27825 -119.41783 21689 ft 426 kts 326°
2026-05-07 21:56 34.30239 -119.43870 22097 ft 428 kts 326°
2026-05-07 21:57 34.32668 -119.45976 22496 ft 431 kts 326°
2026-05-07 21:57 34.35084 -119.48137 22881 ft 434 kts 322°
2026-05-07 21:57 34.37211 -119.50671 23255 ft 438 kts 311°
2026-05-07 21:57 34.38902 -119.53748 23624 ft 442 kts 298°
2026-05-07 21:58 34.40027 -119.57228 23978 ft 447 kts 286°
2026-05-07 21:58 34.40515 -119.60955 24313 ft 451 kts 274°
2026-05-07 21:58 34.40399 -119.64770 24668 ft 455 kts 266°
2026-05-07 21:58 34.40096 -119.68590 24994 ft 458 kts 265°
2026-05-07 21:59 34.39784 -119.72438 25328 ft 460 kts 266°
2026-05-07 21:59 34.39490 -119.76302 25653 ft 462 kts 266°
2026-05-07 21:59 34.39208 -119.80188 25971 ft 464 kts 266°
2026-05-07 21:59 34.38932 -119.84092 26287 ft 466 kts 266°
2026-05-07 22:00 34.38655 -119.88009 26585 ft 469 kts 266°
2026-05-07 22:00 34.38379 -119.91952 26874 ft 471 kts 266°
2026-05-07 22:00 34.38100 -119.95910 27163 ft 473 kts 266°
2026-05-07 22:00 34.37812 -119.99884 27429 ft 475 kts 266°
2026-05-07 22:01 34.37522 -120.03869 27737 ft 476 kts 266°
2026-05-07 22:01 34.37231 -120.07853 28102 ft 475 kts 266°
2026-05-07 22:01 34.36941 -120.11836 28456 ft 474 kts 266°
2026-05-07 22:01 34.36646 -120.15804 28802 ft 473 kts 266°
2026-05-07 22:02 34.36351 -120.19769 29139 ft 473 kts 266°
2026-05-07 22:02 34.36058 -120.23733 29427 ft 473 kts 266°
2026-05-07 22:02 34.35763 -120.27696 29732 ft 472 kts 266°
2026-05-07 22:02 34.35468 -120.31648 30042 ft 472 kts 266°
2026-05-07 22:03 34.35168 -120.35596 30339 ft 471 kts 266°
2026-05-07 22:03 34.34869 -120.39535 30623 ft 470 kts 266°
2026-05-07 22:03 34.34555 -120.43471 30911 ft 470 kts 264°
2026-05-07 22:03 34.33892 -120.47332 31171 ft 470 kts 253°
2026-05-07 22:04 34.32676 -120.51004 31422 ft 470 kts 246°
2026-05-07 22:04 34.31266 -120.54566 31666 ft 469 kts 245°
2026-05-07 22:04 34.29833 -120.58114 31909 ft 469 kts 245°
2026-05-07 22:04 34.28409 -120.61659 32096 ft 469 kts 245°
2026-05-07 22:05 34.25584 -120.68752 32122 ft 468 kts 245°
2026-05-07 22:05 34.22767 -120.75850 32095 ft 468 kts 245°
2026-05-07 22:06 34.20436 -120.81728 32091 ft 467 kts 245°
2026-05-07 22:06 34.17625 -120.88793 32107 ft 466 kts 245°
2026-05-07 22:07 34.14813 -120.95838 32113 ft 465 kts 245°
2026-05-07 22:07 34.12004 -121.02864 32114 ft 465 kts 245°
2026-05-07 22:08 34.09191 -121.09884 32106 ft 464 kts 245°
2026-05-07 22:08 34.06379 -121.16881 32117 ft 463 kts 245°
2026-05-07 22:09 34.03570 -121.23860 32108 ft 462 kts 246°
2026-05-07 22:09 34.00761 -121.30833 32112 ft 462 kts 246°
2026-05-07 22:10 33.97956 -121.37779 32115 ft 461 kts 246°
2026-05-07 22:10 33.95143 -121.44716 32101 ft 460 kts 246°
2026-05-07 22:11 33.92331 -121.51643 32101 ft 460 kts 246°
2026-05-07 22:11 33.89523 -121.58556 32101 ft 460 kts 246°
2026-05-07 22:12 33.86709 -121.65461 32101 ft 459 kts 246°
2026-05-07 22:12 33.83886 -121.72353 32100 ft 459 kts 246°
2026-05-07 22:13 33.81068 -121.79242 32099 ft 459 kts 246°
2026-05-07 22:13 33.78245 -121.86122 32099 ft 459 kts 246°
2026-05-07 22:14 33.75418 -121.92997 32100 ft 459 kts 246°
2026-05-07 22:14 33.72604 -121.99823 32099 ft 459 kts 246°
2026-05-07 22:15 33.69768 -122.06686 32099 ft 459 kts 246°
2026-05-07 22:15 33.66936 -122.13544 32101 ft 458 kts 246°
2026-05-07 22:16 33.64097 -122.20397 32100 ft 459 kts 246°
2026-05-07 22:16 33.61254 -122.27249 32101 ft 459 kts 246°
2026-05-07 22:17 33.58410 -122.34094 32101 ft 459 kts 246°
2026-05-07 22:17 33.55563 -122.40935 32101 ft 458 kts 246°
2026-05-07 22:18 33.51289 -122.51185 32101 ft 458 kts 245°
2026-05-07 22:19 33.48504 -122.58041 32093 ft 457 kts 250°
2026-05-07 22:19 33.46828 -122.65284 32096 ft 454 kts 258°
2026-05-07 22:20 33.45342 -122.72638 32092 ft 454 kts 258°
2026-05-07 22:20 33.43824 -122.79983 32090 ft 454 kts 258°
2026-05-07 22:21 33.42298 -122.87324 32091 ft 454 kts 258°
2026-05-07 22:21 33.40777 -122.94666 32090 ft 454 kts 258°
2026-05-07 22:22 33.39245 -123.01998 32091 ft 454 kts 257°
2026-05-07 22:22 33.37711 -123.09325 32090 ft 454 kts 257°
2026-05-07 22:23 33.36172 -123.16648 32090 ft 454 kts 257°
2026-05-07 22:23 33.34632 -123.23973 32093 ft 454 kts 257°
2026-05-07 22:24 33.33086 -123.31287 32100 ft 454 kts 257°
2026-05-07 22:24 33.31552 -123.38610 32101 ft 454 kts 257°
2026-05-07 22:25 33.30018 -123.45868 32100 ft 453 kts 257°
2026-05-07 22:25 33.28464 -123.53169 32100 ft 453 kts 257°
2026-05-07 22:26 33.26901 -123.60472 32112 ft 453 kts 257°
2026-05-07 22:26 33.25338 -123.67769 32119 ft 453 kts 257°
2026-05-07 22:27 33.23771 -123.75060 32115 ft 453 kts 257°
2026-05-07 22:27 33.22197 -123.82349 32118 ft 453 kts 257°
2026-05-07 22:28 33.20623 -123.89635 32110 ft 453 kts 257°
2026-05-07 22:28 33.19038 -123.96922 32112 ft 454 kts 256°
2026-05-07 22:29 33.17452 -124.04208 32105 ft 453 kts 256°
2026-05-07 22:29 33.15863 -124.11475 32109 ft 453 kts 256°
2026-05-07 22:30 33.14271 -124.18751 32116 ft 453 kts 256°
2026-05-07 22:30 33.12670 -124.26020 32100 ft 453 kts 256°
2026-05-07 22:31 33.11067 -124.33285 32100 ft 453 kts 256°
2026-05-07 22:31 33.09462 -124.40558 32101 ft 453 kts 256°
2026-05-07 22:32 33.07853 -124.47827 32092 ft 453 kts 256°
2026-05-07 22:32 33.06241 -124.55084 32089 ft 453 kts 256°
2026-05-07 22:33 33.04613 -124.62347 32091 ft 453 kts 256°
2026-05-07 22:33 33.02996 -124.69555 32090 ft 453 kts 256°
2026-05-07 22:34 33.01365 -124.76815 32090 ft 453 kts 256°
2026-05-07 22:34 32.99730 -124.84070 32090 ft 453 kts 256°
2026-05-07 22:35 32.98085 -124.91323 32090 ft 454 kts 256°
2026-05-07 22:35 32.96441 -124.98575 32089 ft 453 kts 256°
2026-05-07 22:36 32.94783 -125.05821 32090 ft 454 kts 256°
2026-05-07 22:36 32.93130 -125.13069 32097 ft 454 kts 256°
2026-05-07 22:37 32.91475 -125.20309 32100 ft 453 kts 256°
2026-05-07 22:37 32.89825 -125.27544 32105 ft 453 kts 256°
2026-05-07 22:38 32.88160 -125.34768 32122 ft 452 kts 256°
2026-05-07 22:38 32.86495 -125.41987 32126 ft 452 kts 256°
2026-05-07 22:39 32.84815 -125.49196 32132 ft 452 kts 256°
2026-05-07 22:39 32.83136 -125.56401 32138 ft 452 kts 256°
2026-05-07 22:40 32.81458 -125.63607 32127 ft 452 kts 256°
2026-05-07 22:40 32.79789 -125.70813 32116 ft 452 kts 256°
2026-05-07 22:41 32.78109 -125.78021 32119 ft 453 kts 256°
2026-05-07 22:41 32.76417 -125.85221 32114 ft 452 kts 255°
2026-05-07 22:42 32.74725 -125.92423 32118 ft 452 kts 255°
2026-05-07 22:42 32.73025 -125.99616 32117 ft 452 kts 255°
2026-05-07 22:43 32.71327 -126.06761 32113 ft 453 kts 256°
2026-05-07 22:43 32.69620 -126.13955 32109 ft 453 kts 256°
2026-05-07 22:44 32.67900 -126.21150 32117 ft 453 kts 255°
2026-05-07 22:44 32.66177 -126.28343 32122 ft 453 kts 256°
2026-05-07 22:45 32.64454 -126.35537 32116 ft 453 kts 256°
2026-05-07 22:45 32.62728 -126.42723 32119 ft 453 kts 256°
2026-05-07 22:46 32.61001 -126.49914 32114 ft 453 kts 256°
2026-05-07 22:46 32.59267 -126.57106 32115 ft 454 kts 256°
2026-05-07 22:47 32.57529 -126.64298 32108 ft 454 kts 256°
2026-05-07 22:47 32.55784 -126.71488 32109 ft 454 kts 256°
2026-05-07 22:48 32.54034 -126.78679 32120 ft 454 kts 256°
2026-05-07 22:48 32.52274 -126.85875 32109 ft 455 kts 256°
2026-05-07 22:49 32.50525 -126.93030 32116 ft 455 kts 256°
2026-05-07 22:49 32.48751 -127.00234 32107 ft 456 kts 256°
2026-05-07 22:50 32.46978 -127.07445 32112 ft 456 kts 256°
2026-05-07 22:50 32.45197 -127.14661 32108 ft 457 kts 256°
2026-05-07 22:51 32.43425 -127.21889 32120 ft 457 kts 256°
2026-05-07 22:51 32.41635 -127.29119 32111 ft 458 kts 256°
2026-05-07 22:52 32.39835 -127.36354 32114 ft 459 kts 256°
2026-05-07 22:52 32.38029 -127.43599 32101 ft 459 kts 256°
2026-05-07 22:53 32.36216 -127.50851 32101 ft 460 kts 256°
2026-05-07 22:53 32.34395 -127.58115 32100 ft 461 kts 256°
2026-05-07 22:54 32.32565 -127.65382 32102 ft 461 kts 256°
2026-05-07 22:54 32.30735 -127.72658 32101 ft 462 kts 257°
2026-05-07 22:55 32.29207 -127.78710 32099 ft 463 kts 256°
2026-05-07 22:55 32.27043 -127.87221 32100 ft 463 kts 257°
2026-05-07 22:56 32.25505 -127.93282 32100 ft 463 kts 257°
2026-05-07 22:56 32.23652 -128.00572 32098 ft 463 kts 257°
2026-05-07 22:57 32.21790 -128.07859 32099 ft 464 kts 257°
2026-05-07 22:57 32.19919 -128.15143 32110 ft 463 kts 257°
2026-05-07 22:58 32.18048 -128.22419 32121 ft 463 kts 256°
2026-05-07 22:58 32.16173 -128.29689 32113 ft 463 kts 256°
2026-05-07 22:59 32.14302 -128.36946 32129 ft 462 kts 256°
2026-05-07 22:59 32.12427 -128.44200 32123 ft 462 kts 256°
2026-05-07 23:00 32.10548 -128.51443 32118 ft 462 kts 256°
2026-05-07 23:00 32.08666 -128.58680 32123 ft 461 kts 256°
2026-05-07 23:01 32.06781 -128.65904 32121 ft 461 kts 256°
2026-05-07 23:01 32.04895 -128.73123 32120 ft 460 kts 256°
2026-05-07 23:02 32.03006 -128.80334 32113 ft 460 kts 256°
2026-05-07 23:02 32.01114 -128.87529 32126 ft 459 kts 256°
2026-05-07 23:03 31.99224 -128.94712 32117 ft 459 kts 256°
2026-05-07 23:03 31.97323 -129.01910 32123 ft 460 kts 256°
2026-05-07 23:04 31.95420 -129.09099 32111 ft 460 kts 256°
2026-05-07 23:04 31.93532 -129.16234 32112 ft 459 kts 256°
2026-05-07 23:05 31.91623 -129.23407 32117 ft 459 kts 256°
2026-05-07 23:05 31.89711 -129.30570 32122 ft 459 kts 256°
2026-05-07 23:06 31.87795 -129.37735 32121 ft 458 kts 256°
2026-05-07 23:06 31.85878 -129.44881 32121 ft 458 kts 256°
2026-05-07 23:07 31.83959 -129.52021 32120 ft 458 kts 256°
2026-05-07 23:07 31.82033 -129.59165 32109 ft 458 kts 256°
2026-05-07 23:08 31.80107 -129.66305 32124 ft 458 kts 256°
2026-05-07 23:08 31.78179 -129.73429 32117 ft 458 kts 256°
2026-05-07 23:09 31.76243 -129.80558 32127 ft 458 kts 255°
2026-05-07 23:09 31.74301 -129.87683 32137 ft 458 kts 255°
2026-05-07 23:10 31.72361 -129.94797 32142 ft 458 kts 255°
2026-05-07 23:10 31.70426 -130.01872 32133 ft 458 kts 255°
2026-05-07 23:11 31.68477 -130.08986 32105 ft 458 kts 255°
2026-05-07 23:11 31.66521 -130.16103 32124 ft 458 kts 255°
2026-05-07 23:12 31.64561 -130.23212 32133 ft 458 kts 255°
2026-05-07 23:12 31.62601 -130.30315 32133 ft 457 kts 255°
2026-05-07 23:13 31.60636 -130.37413 32135 ft 458 kts 255°
2026-05-07 23:13 31.58662 -130.44514 32126 ft 458 kts 255°
2026-05-07 23:14 31.56690 -130.51606 32130 ft 457 kts 255°
2026-05-07 23:14 31.54715 -130.58691 32128 ft 457 kts 255°
2026-05-07 23:15 31.52734 -130.65777 32135 ft 457 kts 255°
2026-05-07 23:15 31.50752 -130.72851 32131 ft 457 kts 255°
2026-05-07 23:16 31.48765 -130.79924 32127 ft 457 kts 255°
2026-05-07 23:16 31.46772 -130.86992 32135 ft 457 kts 255°
2026-05-07 23:17 31.44780 -130.94056 32128 ft 457 kts 255°
2026-05-07 23:17 31.42799 -131.01066 32130 ft 456 kts 255°
2026-05-07 23:18 31.40802 -131.08110 32129 ft 456 kts 255°
2026-05-07 23:18 31.38801 -131.15149 32130 ft 456 kts 255°
2026-05-07 23:19 31.36795 -131.22182 32132 ft 456 kts 254°
2026-05-07 23:19 31.34790 -131.29211 32129 ft 455 kts 254°
2026-05-07 23:20 31.32778 -131.36240 32131 ft 455 kts 254°
2026-05-07 23:20 31.30763 -131.43258 32127 ft 455 kts 254°
2026-05-07 23:21 31.28746 -131.50273 32125 ft 455 kts 254°
2026-05-07 23:21 31.26711 -131.57281 32129 ft 455 kts 254°
2026-05-07 23:22 31.24681 -131.64286 32129 ft 455 kts 254°
2026-05-07 23:22 31.22654 -131.71297 32134 ft 455 kts 254°
2026-05-07 23:23 31.20627 -131.78299 32132 ft 455 kts 254°
2026-05-07 23:23 31.18598 -131.85296 32134 ft 455 kts 254°
2026-05-07 23:24 31.16560 -131.92286 32129 ft 455 kts 254°
2026-05-07 23:24 31.14519 -131.99278 32132 ft 455 kts 254°
2026-05-07 23:25 31.12475 -132.06260 32132 ft 454 kts 253°
2026-05-07 23:25 31.10445 -132.13168 32129 ft 453 kts 253°
2026-05-07 23:26 31.08399 -132.20122 32117 ft 453 kts 253°
2026-05-07 23:26 31.06345 -132.27072 32120 ft 453 kts 253°
2026-05-07 23:27 31.03264 -132.37491 32116 ft 453 kts 253°
2026-05-07 23:27 31.01208 -132.44428 32124 ft 453 kts 253°
2026-05-07 23:28 30.99140 -132.51360 32117 ft 453 kts 253°
2026-05-07 23:28 30.97077 -132.58290 32117 ft 453 kts 253°
2026-05-07 23:29 30.95011 -132.65213 32113 ft 452 kts 253°
2026-05-07 23:29 30.92937 -132.72131 32113 ft 452 kts 253°
2026-05-07 23:30 30.90866 -132.79044 32119 ft 452 kts 253°
2026-05-07 23:30 30.88791 -132.85946 32134 ft 452 kts 253°
2026-05-07 23:31 30.86710 -132.92842 32140 ft 451 kts 253°
2026-05-07 23:31 30.84626 -132.99737 32139 ft 451 kts 253°
2026-05-07 23:32 30.82543 -133.06629 32139 ft 451 kts 253°
2026-05-07 23:32 30.80452 -133.13506 32138 ft 451 kts 253°
2026-05-07 23:33 30.78366 -133.20377 32138 ft 451 kts 253°
2026-05-07 23:33 30.76276 -133.27245 32139 ft 450 kts 252°
2026-05-07 23:34 30.74179 -133.34102 32141 ft 450 kts 252°
2026-05-07 23:34 30.72078 -133.40958 32138 ft 450 kts 252°
2026-05-07 23:35 30.69984 -133.47798 32137 ft 449 kts 252°
2026-05-07 23:35 30.67885 -133.54630 32139 ft 449 kts 252°
2026-05-07 23:36 30.65769 -133.61449 32142 ft 449 kts 252°
2026-05-07 23:36 30.63657 -133.68265 32140 ft 449 kts 252°
2026-05-07 23:37 30.61549 -133.75083 32141 ft 449 kts 252°
2026-05-07 23:37 30.59438 -133.81896 32140 ft 449 kts 252°
2026-05-07 23:38 30.57337 -133.88665 32145 ft 449 kts 252°
2026-05-07 23:38 30.55217 -133.95472 32138 ft 449 kts 252°
2026-05-07 23:39 30.53105 -134.02277 32144 ft 449 kts 252°
2026-05-07 23:39 30.50987 -134.09072 32138 ft 447 kts 252°
2026-05-07 23:40 30.48869 -134.15849 32146 ft 447 kts 252°
2026-05-07 23:40 30.46741 -134.22615 32150 ft 447 kts 252°
2026-05-07 23:41 30.44612 -134.29381 32143 ft 447 kts 252°
2026-05-07 23:41 30.42483 -134.36147 32143 ft 447 kts 252°
2026-05-07 23:42 30.40350 -134.42906 32143 ft 446 kts 252°
2026-05-07 23:42 30.38576 -134.48511 32140 ft 446 kts 252°
2026-05-07 23:43 30.36441 -134.55257 32140 ft 446 kts 252°
2026-05-07 23:43 30.34297 -134.61997 32137 ft 446 kts 252°
2026-05-07 23:44 30.32155 -134.68724 32140 ft 445 kts 251°
2026-05-07 23:44 30.30009 -134.75447 32142 ft 445 kts 251°
2026-05-07 23:45 30.27868 -134.82154 32143 ft 444 kts 251°
2026-05-07 23:45 30.25723 -134.88852 32148 ft 444 kts 251°
2026-05-07 23:46 30.23573 -134.95543 32139 ft 443 kts 251°
2026-05-07 23:46 30.21423 -135.02226 32141 ft 443 kts 251°
2026-05-07 23:47 30.19273 -135.08898 32143 ft 443 kts 251°
2026-05-07 23:47 30.17122 -135.15559 32137 ft 442 kts 251°
2026-05-07 23:48 30.14966 -135.22216 32141 ft 442 kts 251°
2026-05-07 23:48 30.12812 -135.28851 32137 ft 441 kts 251°
2026-05-07 23:49 30.10660 -135.35478 32138 ft 441 kts 251°
2026-05-07 23:49 30.08509 -135.42103 32139 ft 440 kts 251°
2026-05-07 23:50 30.06352 -135.48724 32140 ft 440 kts 251°
2026-05-07 23:50 30.04206 -135.55287 32141 ft 440 kts 251°
2026-05-07 23:51 30.02042 -135.61893 32139 ft 440 kts 251°
2026-05-07 23:51 29.99876 -135.68492 32141 ft 440 kts 250°
2026-05-07 23:52 29.97705 -135.75090 32143 ft 440 kts 251°
2026-05-07 23:52 29.95535 -135.81689 32143 ft 440 kts 251°
2026-05-07 23:53 29.93362 -135.88282 32140 ft 440 kts 250°
2026-05-07 23:53 29.91183 -135.94873 32138 ft 440 kts 250°
2026-05-07 23:54 29.89002 -136.01455 32138 ft 440 kts 250°
2026-05-07 23:54 29.86815 -136.08036 32137 ft 440 kts 250°
2026-05-07 23:55 29.84626 -136.14615 32137 ft 440 kts 250°
2026-05-07 23:55 29.82434 -136.21192 32138 ft 440 kts 250°
2026-05-07 23:56 29.80242 -136.27766 32138 ft 440 kts 250°
2026-05-07 23:56 29.78044 -136.34334 32137 ft 440 kts 250°
2026-05-07 23:57 29.75845 -136.40905 32143 ft 440 kts 250°
2026-05-07 23:57 29.73644 -136.47471 32138 ft 440 kts 250°
2026-05-07 23:58 29.71435 -136.54030 32140 ft 440 kts 250°
2026-05-07 23:58 29.69225 -136.60591 32143 ft 440 kts 250°
2026-05-07 23:59 29.67012 -136.67145 32144 ft 440 kts 250°
2026-05-07 23:59 29.64797 -136.73693 32138 ft 439 kts 250°
2026-05-08 00:00 29.62590 -136.80180 32138 ft 439 kts 250°
2026-05-08 00:00 29.60364 -136.86702 32140 ft 438 kts 250°
2026-05-08 00:01 29.58139 -136.93225 32142 ft 438 kts 250°
2026-05-08 00:01 29.55921 -136.99742 32138 ft 438 kts 250°
2026-05-08 00:02 29.53702 -137.06263 32137 ft 438 kts 250°
2026-05-08 00:02 29.51485 -137.12765 32140 ft 437 kts 250°
2026-05-08 00:03 29.49261 -137.19254 32143 ft 437 kts 250°
2026-05-08 00:03 29.47033 -137.25752 32139 ft 437 kts 250°
2026-05-08 00:04 29.44799 -137.32231 32142 ft 436 kts 250°
2026-05-08 00:04 29.42568 -137.38706 32136 ft 436 kts 250°
2026-05-08 00:05 29.40325 -137.45175 32139 ft 436 kts 249°
2026-05-08 00:05 29.38095 -137.51590 32139 ft 436 kts 249°
2026-05-08 00:06 29.35863 -137.58041 32139 ft 435 kts 249°
2026-05-08 00:06 29.33626 -137.64488 32138 ft 435 kts 249°
2026-05-08 00:07 29.31390 -137.70927 32142 ft 435 kts 249°
2026-05-08 00:07 29.29151 -137.77370 32141 ft 435 kts 249°
2026-05-08 00:08 29.26899 -137.83802 32147 ft 435 kts 249°
2026-05-08 00:08 29.24645 -137.90236 32140 ft 435 kts 249°
2026-05-08 00:09 29.22385 -137.96659 32136 ft 435 kts 249°
2026-05-08 00:09 29.20135 -138.03090 32138 ft 435 kts 249°
2026-05-08 00:10 29.17883 -138.09490 32139 ft 433 kts 249°
2026-05-08 00:10 29.15631 -138.15886 32136 ft 433 kts 249°
2026-05-08 00:11 29.13372 -138.22288 32138 ft 434 kts 249°
2026-05-08 00:11 29.11122 -138.28680 32121 ft 432 kts 249°
2026-05-08 00:12 29.08861 -138.35058 32119 ft 433 kts 249°
2026-05-08 00:12 29.06600 -138.41434 32111 ft 433 kts 249°
2026-05-08 00:13 29.04333 -138.47806 32112 ft 433 kts 249°
2026-05-08 00:13 29.02086 -138.54136 32114 ft 433 kts 249°
2026-05-08 00:14 28.99811 -138.60502 32116 ft 433 kts 249°
2026-05-08 00:14 28.97538 -138.66869 32126 ft 433 kts 249°
2026-05-08 00:15 28.95246 -138.73272 32116 ft 433 kts 249°
2026-05-08 00:15 28.92983 -138.79588 32121 ft 433 kts 249°
2026-05-08 00:16 28.90706 -138.85952 32122 ft 433 kts 249°
2026-05-08 00:16 28.88424 -138.92312 32124 ft 433 kts 249°
2026-05-08 00:17 28.86145 -138.98665 32117 ft 433 kts 249°
2026-05-08 00:17 28.83854 -139.05017 32131 ft 433 kts 249°
2026-05-08 00:18 28.81553 -139.11363 32127 ft 433 kts 249°
2026-05-08 00:18 28.79255 -139.17706 32135 ft 433 kts 249°
2026-05-08 00:19 28.76955 -139.24044 32125 ft 433 kts 249°
2026-05-08 00:19 28.74649 -139.30379 32134 ft 433 kts 248°
2026-05-08 00:20 28.72358 -139.36675 32137 ft 433 kts 248°
2026-05-08 00:20 28.71203 -139.39846 32315 ft 434 kts 248°
2026-05-08 00:20 28.70047 -139.43017 32599 ft 433 kts 248°
2026-05-08 00:21 28.68888 -139.46179 32860 ft 432 kts 248°
2026-05-08 00:21 28.67731 -139.49335 33102 ft 432 kts 248°
2026-05-08 00:21 28.66572 -139.52490 33324 ft 432 kts 248°
2026-05-08 00:21 28.65412 -139.55641 33523 ft 432 kts 248°
2026-05-08 00:22 28.64253 -139.58795 33732 ft 432 kts 248°
2026-05-08 00:22 28.63094 -139.61941 33939 ft 432 kts 248°
2026-05-08 00:22 28.61934 -139.65094 34124 ft 432 kts 248°
2026-05-08 00:22 28.60770 -139.68253 34164 ft 432 kts 248°
2026-05-08 00:23 28.58444 -139.74551 34132 ft 432 kts 248°
2026-05-08 00:23 28.56116 -139.80847 34121 ft 432 kts 248°
2026-05-08 00:24 28.53784 -139.87141 34121 ft 432 kts 248°
2026-05-08 00:24 28.51449 -139.93434 34121 ft 432 kts 248°
2026-05-08 00:25 28.49113 -139.99719 34120 ft 432 kts 248°
2026-05-08 00:25 28.46774 -140.06000 34120 ft 432 kts 248°
2026-05-08 00:26 28.44431 -140.12286 34120 ft 432 kts 248°
2026-05-08 00:26 28.42101 -140.18522 34120 ft 431 kts 248°
2026-05-08 00:27 28.39739 -140.24836 34120 ft 432 kts 248°
2026-05-08 00:27 28.37403 -140.31069 34120 ft 432 kts 248°
2026-05-08 00:28 28.35052 -140.37339 34120 ft 432 kts 248°
2026-05-08 00:28 28.32692 -140.43609 34121 ft 432 kts 248°
2026-05-08 00:29 28.30331 -140.49883 34120 ft 433 kts 248°
2026-05-08 00:29 28.27962 -140.56165 34120 ft 433 kts 248°
2026-05-08 00:30 28.25591 -140.62441 34120 ft 433 kts 248°
2026-05-08 00:30 28.23214 -140.68719 34120 ft 433 kts 248°
2026-05-08 00:31 28.20834 -140.74995 34112 ft 433 kts 248°
2026-05-08 00:31 28.18453 -140.81270 34102 ft 433 kts 248°
2026-05-08 00:32 28.16470 -140.86483 34101 ft 433 kts 248°
2026-05-08 00:32 28.14080 -140.92758 34100 ft 433 kts 248°
2026-05-08 00:33 28.11687 -140.99029 34100 ft 434 kts 248°
2026-05-08 00:33 28.09294 -141.05296 34100 ft 434 kts 248°
2026-05-08 00:34 28.06895 -141.11563 34100 ft 434 kts 248°
2026-05-08 00:34 28.04495 -141.17825 34100 ft 434 kts 248°
2026-05-08 00:35 28.02087 -141.24099 34100 ft 435 kts 248°
2026-05-08 00:35 27.99691 -141.30329 34100 ft 435 kts 248°
2026-05-08 00:36 27.97261 -141.36639 34100 ft 434 kts 248°
2026-05-08 00:36 27.94860 -141.42860 34100 ft 434 kts 247°
2026-05-08 00:37 27.92443 -141.49110 34100 ft 434 kts 247°
2026-05-08 00:38 27.88814 -141.58480 34100 ft 434 kts 247°
2026-05-08 00:38 27.86393 -141.64723 34100 ft 434 kts 247°
2026-05-08 00:39 27.83967 -141.70963 34100 ft 434 kts 247°
2026-05-08 00:39 27.81535 -141.77210 34100 ft 434 kts 247°
2026-05-08 00:40 27.79098 -141.83449 34100 ft 434 kts 247°
2026-05-08 00:40 27.76663 -141.89685 34101 ft 434 kts 247°
2026-05-08 00:41 27.74224 -141.95919 34100 ft 434 kts 247°
2026-05-08 00:41 27.71783 -142.02148 34100 ft 434 kts 247°
2026-05-08 00:42 27.69338 -142.08377 34100 ft 434 kts 247°
2026-05-08 00:42 27.66889 -142.14608 34109 ft 435 kts 247°
2026-05-08 00:43 27.64435 -142.20845 34110 ft 435 kts 247°
2026-05-08 00:43 27.61978 -142.27077 34110 ft 435 kts 247°
2026-05-08 00:44 27.59531 -142.33270 34110 ft 435 kts 247°
2026-05-08 00:44 27.57066 -142.39502 34110 ft 436 kts 247°
2026-05-08 00:45 27.54593 -142.45740 34110 ft 436 kts 247°
2026-05-08 00:45 27.52118 -142.51975 34110 ft 436 kts 247°
2026-05-08 00:46 27.49640 -142.58211 34110 ft 437 kts 247°
2026-05-08 00:46 27.47155 -142.64455 34110 ft 437 kts 247°
2026-05-08 00:47 27.44665 -142.70696 34110 ft 437 kts 246°
2026-05-08 00:47 27.42175 -142.76951 34111 ft 438 kts 246°
2026-05-08 00:48 27.39679 -142.83198 34111 ft 438 kts 246°
2026-05-08 00:48 27.37176 -142.89454 34110 ft 439 kts 246°
2026-05-08 00:49 27.34663 -142.95714 34110 ft 439 kts 246°
2026-05-08 00:49 27.32150 -143.01971 34110 ft 439 kts 246°
2026-05-08 00:50 27.29634 -143.08227 34110 ft 440 kts 246°
2026-05-08 00:50 27.27106 -143.14495 34110 ft 440 kts 246°
2026-05-08 00:51 27.24578 -143.20759 34111 ft 440 kts 246°
2026-05-08 00:51 27.22044 -143.27025 34110 ft 440 kts 246°
2026-05-08 00:52 27.19511 -143.33288 34110 ft 441 kts 246°
2026-05-08 00:52 27.16970 -143.39554 34110 ft 441 kts 246°
2026-05-08 00:53 27.14442 -143.45783 34110 ft 441 kts 246°
2026-05-08 00:53 27.11891 -143.52049 34111 ft 441 kts 246°
2026-05-08 00:54 27.09340 -143.58314 34111 ft 441 kts 246°
2026-05-08 00:54 27.06786 -143.64573 34111 ft 441 kts 246°
2026-05-08 00:55 27.04225 -143.70836 34110 ft 442 kts 246°
2026-05-08 00:55 27.01661 -143.77100 34111 ft 442 kts 246°
2026-05-08 00:56 26.99095 -143.83367 34103 ft 442 kts 246°
2026-05-08 00:56 26.96524 -143.89629 34101 ft 442 kts 246°
2026-05-08 00:57 26.93949 -143.95886 34101 ft 442 kts 246°
2026-05-08 00:57 26.91371 -144.02146 34100 ft 442 kts 246°
2026-05-08 00:58 26.88790 -144.08406 34100 ft 443 kts 245°
2026-05-08 00:58 26.86201 -144.14668 34101 ft 443 kts 246°
2026-05-08 00:59 26.83612 -144.20923 34101 ft 443 kts 245°
2026-05-08 00:59 26.81020 -144.27182 34100 ft 443 kts 245°
2026-05-08 01:00 26.78425 -144.33438 34100 ft 443 kts 245°
2026-05-08 01:00 26.75845 -144.39650 34100 ft 443 kts 245°
2026-05-08 01:01 26.73246 -144.45893 34100 ft 443 kts 245°
2026-05-08 01:01 26.70641 -144.52138 34100 ft 443 kts 245°
2026-05-08 01:02 26.68034 -144.58381 34100 ft 443 kts 245°
2026-05-08 01:02 26.65427 -144.64619 34100 ft 443 kts 245°
2026-05-08 01:03 26.62818 -144.70856 34100 ft 443 kts 245°
2026-05-08 01:03 26.60206 -144.77086 34101 ft 443 kts 245°
2026-05-08 01:04 26.57587 -144.83314 34100 ft 443 kts 245°
2026-05-08 01:04 26.54970 -144.89540 34101 ft 443 kts 245°
2026-05-08 01:05 26.52347 -144.95764 34100 ft 443 kts 245°
2026-05-08 01:05 26.49722 -145.01980 34100 ft 443 kts 245°
2026-05-08 01:06 26.47094 -145.08200 34100 ft 443 kts 245°
2026-05-08 01:06 26.44461 -145.14429 34101 ft 444 kts 245°
2026-05-08 01:07 26.41825 -145.20651 34100 ft 444 kts 245°
2026-05-08 01:07 26.39184 -145.26871 34106 ft 444 kts 245°
2026-05-08 01:08 26.36540 -145.33089 34110 ft 444 kts 245°
2026-05-08 01:08 26.33897 -145.39302 34111 ft 443 kts 245°
2026-05-08 01:09 26.31268 -145.45472 34110 ft 443 kts 245°
2026-05-08 01:09 26.28619 -145.51678 34108 ft 444 kts 245°
2026-05-08 01:10 26.25963 -145.57884 34101 ft 444 kts 244°
2026-05-08 01:10 26.23301 -145.64085 34123 ft 444 kts 244°
2026-05-08 01:11 26.20636 -145.70293 34127 ft 444 kts 244°
2026-05-08 01:11 26.17968 -145.76501 34121 ft 444 kts 244°
2026-05-08 01:12 26.15306 -145.82712 34120 ft 444 kts 244°
2026-05-08 01:12 26.12642 -145.88917 34121 ft 444 kts 244°
2026-05-08 01:13 26.09968 -145.95118 34121 ft 444 kts 244°
2026-05-08 01:13 26.07292 -146.01311 34120 ft 444 kts 244°
2026-05-08 01:14 26.04610 -146.07509 34120 ft 445 kts 244°
2026-05-08 01:14 26.01931 -146.13699 34119 ft 444 kts 244°
2026-05-08 01:15 25.99246 -146.19889 34120 ft 444 kts 244°
2026-05-08 01:15 25.96565 -146.26079 34120 ft 444 kts 244°
2026-05-08 01:16 25.93895 -146.32223 34120 ft 444 kts 244°
2026-05-08 01:16 25.91208 -146.38402 34120 ft 444 kts 244°
2026-05-08 01:17 25.88515 -146.44584 34120 ft 444 kts 244°
2026-05-08 01:17 25.85823 -146.50763 34120 ft 444 kts 244°
2026-05-08 01:18 25.83127 -146.56936 34120 ft 444 kts 244°
2026-05-08 01:18 25.80428 -146.63109 34120 ft 444 kts 244°
2026-05-08 01:19 25.77729 -146.69275 34120 ft 444 kts 244°
2026-05-08 01:19 25.75028 -146.75437 34120 ft 444 kts 244°
2026-05-08 01:20 25.72319 -146.81600 34120 ft 444 kts 244°
2026-05-08 01:20 25.69613 -146.87761 34120 ft 444 kts 244°
2026-05-08 01:21 25.66901 -146.93915 34120 ft 444 kts 244°
2026-05-08 01:21 25.64644 -146.99034 34120 ft 444 kts 244°
2026-05-08 01:22 25.61930 -147.05182 34120 ft 444 kts 244°
2026-05-08 01:22 25.59209 -147.11331 34121 ft 444 kts 244°
2026-05-08 01:23 25.56491 -147.17477 34120 ft 444 kts 244°
2026-05-08 01:23 25.53763 -147.23619 34120 ft 444 kts 244°
2026-05-08 01:24 25.51036 -147.29759 34120 ft 444 kts 244°
2026-05-08 01:24 25.48309 -147.35896 34120 ft 444 kts 244°
2026-05-08 01:25 25.45579 -147.42032 34120 ft 444 kts 244°
2026-05-08 01:25 25.42840 -147.48162 34120 ft 444 kts 243°
2026-05-08 01:26 25.40102 -147.54289 34120 ft 444 kts 243°
2026-05-08 01:26 25.37378 -147.60377 34121 ft 444 kts 243°
2026-05-08 01:27 25.34638 -147.66499 34129 ft 444 kts 243°
2026-05-08 01:27 25.31895 -147.72619 34130 ft 444 kts 243°
2026-05-08 01:28 25.29149 -147.78738 34129 ft 444 kts 243°
2026-05-08 01:28 25.26401 -147.84851 34130 ft 444 kts 243°
2026-05-08 01:29 25.23650 -147.90967 34130 ft 444 kts 243°
2026-05-08 01:29 25.20898 -147.97079 34131 ft 444 kts 243°
2026-05-08 01:30 25.18144 -148.03184 34131 ft 444 kts 243°
2026-05-08 01:30 25.15391 -148.09270 34131 ft 443 kts 243°
2026-05-08 01:31 25.12637 -148.15355 34131 ft 443 kts 243°
2026-05-08 01:31 25.09884 -148.21431 34130 ft 443 kts 243°
2026-05-08 01:32 25.07129 -148.27498 34131 ft 443 kts 243°
2026-05-08 01:32 25.04389 -148.33527 34130 ft 442 kts 243°
2026-05-08 01:33 25.01628 -148.39592 34130 ft 443 kts 243°
2026-05-08 01:33 24.98865 -148.45658 34131 ft 442 kts 243°
2026-05-08 01:34 24.96104 -148.51712 34130 ft 442 kts 243°
2026-05-08 01:34 24.93335 -148.57771 34130 ft 442 kts 243°
2026-05-08 01:35 24.90566 -148.63822 34131 ft 442 kts 243°
2026-05-08 01:35 24.87800 -148.69863 34130 ft 441 kts 243°
2026-05-08 01:36 24.85032 -148.75893 34131 ft 441 kts 243°
2026-05-08 01:36 24.82260 -148.81926 34130 ft 441 kts 243°
2026-05-08 01:37 24.79489 -148.87956 34131 ft 441 kts 243°
2026-05-08 01:37 24.76713 -148.93975 34131 ft 441 kts 243°
2026-05-08 01:38 24.73935 -148.99999 34130 ft 441 kts 243°
2026-05-08 01:38 24.71157 -149.06016 34129 ft 441 kts 243°
2026-05-08 01:39 24.68377 -149.12031 34131 ft 441 kts 243°
2026-05-08 01:39 24.65595 -149.18041 34132 ft 441 kts 243°
2026-05-08 01:40 24.62831 -149.24009 34130 ft 441 kts 243°
2026-05-08 01:40 24.60042 -149.30014 34130 ft 441 kts 243°
2026-05-08 01:41 24.57251 -149.36014 34131 ft 441 kts 243°
2026-05-08 01:41 24.54459 -149.42020 34131 ft 441 kts 243°
2026-05-08 01:42 24.51662 -149.48015 34132 ft 441 kts 243°
2026-05-08 01:42 24.48868 -149.54006 34128 ft 441 kts 243°
2026-05-08 01:43 24.46072 -149.59993 34121 ft 441 kts 243°
2026-05-08 01:43 24.43271 -149.65980 34120 ft 441 kts 243°
2026-05-08 01:44 24.40469 -149.71963 34120 ft 441 kts 243°
2026-05-08 01:44 24.37683 -149.77902 34120 ft 441 kts 243°
2026-05-08 01:45 24.34874 -149.83881 34120 ft 441 kts 243°
2026-05-08 01:45 24.32067 -149.89855 34120 ft 441 kts 243°
2026-05-08 01:46 24.29256 -149.95825 34120 ft 441 kts 243°
2026-05-08 01:46 24.26445 -150.01790 34120 ft 440 kts 243°
2026-05-08 01:47 24.23629 -150.07754 34121 ft 441 kts 243°
2026-05-08 01:47 24.20811 -150.13712 34120 ft 441 kts 243°
2026-05-08 01:48 24.16581 -150.22654 34120 ft 441 kts 243°
2026-05-08 01:48 24.13755 -150.28611 34120 ft 441 kts 242°
2026-05-08 01:49 24.10929 -150.34566 34120 ft 441 kts 242°
2026-05-08 01:49 24.08120 -150.40477 34120 ft 441 kts 242°
2026-05-08 01:50 24.05295 -150.46419 34120 ft 440 kts 242°
2026-05-08 01:50 24.02468 -150.52351 34120 ft 440 kts 242°
2026-05-08 01:51 23.99640 -150.58279 34120 ft 440 kts 242°
2026-05-08 01:51 23.96809 -150.64207 34120 ft 440 kts 242°
2026-05-08 01:52 23.93975 -150.70128 34120 ft 440 kts 242°
2026-05-08 01:52 23.91138 -150.76052 34120 ft 440 kts 242°
2026-05-08 01:53 23.88301 -150.81970 34120 ft 439 kts 242°
2026-05-08 01:53 23.85467 -150.87875 34120 ft 439 kts 242°
2026-05-08 01:54 23.82631 -150.93778 34120 ft 439 kts 242°
2026-05-08 01:54 23.79791 -150.99678 34120 ft 439 kts 242°
2026-05-08 01:55 23.76969 -151.05536 34120 ft 439 kts 242°
2026-05-08 01:55 23.74127 -151.11430 34120 ft 439 kts 242°
2026-05-08 01:56 23.71281 -151.17320 34120 ft 439 kts 242°
2026-05-08 01:56 23.68438 -151.23201 34120 ft 438 kts 242°
2026-05-08 01:57 23.65592 -151.29076 34120 ft 438 kts 242°
2026-05-08 01:57 23.62746 -151.34950 34120 ft 438 kts 242°
2026-05-08 01:58 23.59896 -151.40823 34120 ft 438 kts 242°
2026-05-08 01:58 23.57043 -151.46690 34120 ft 438 kts 242°
2026-05-08 01:59 23.54189 -151.52557 34120 ft 438 kts 242°
2026-05-08 01:59 23.51336 -151.58414 34121 ft 438 kts 242°
2026-05-08 02:00 23.48480 -151.64272 34121 ft 438 kts 242°
2026-05-08 02:00 23.45620 -151.70129 34120 ft 438 kts 242°
2026-05-08 02:01 23.42757 -151.75987 34120 ft 438 kts 242°
2026-05-08 02:01 23.39893 -151.81838 34121 ft 438 kts 242°
2026-05-08 02:02 23.37028 -151.87686 34121 ft 438 kts 242°
2026-05-08 02:02 23.34160 -151.93533 34121 ft 438 kts 242°
2026-05-08 02:03 23.31306 -151.99338 34121 ft 438 kts 242°
2026-05-08 02:03 23.28434 -152.05179 34120 ft 437 kts 242°
2026-05-08 02:04 23.25565 -152.11003 34120 ft 437 kts 242°
2026-05-08 02:04 23.22696 -152.16825 34120 ft 437 kts 242°
2026-05-08 02:05 23.19824 -152.22646 34120 ft 437 kts 242°
2026-05-08 02:05 23.16946 -152.28465 34120 ft 437 kts 242°
2026-05-08 02:06 23.14072 -152.34280 34120 ft 437 kts 241°
2026-05-08 02:06 23.11194 -152.40099 34120 ft 437 kts 242°
2026-05-08 02:07 23.08313 -152.45907 34121 ft 436 kts 241°
2026-05-08 02:07 23.05437 -152.51699 34120 ft 436 kts 242°
2026-05-08 02:08 23.02558 -152.57493 34121 ft 436 kts 242°
2026-05-08 02:08 22.99666 -152.63279 34120 ft 436 kts 241°
2026-05-08 02:09 22.96764 -152.69057 34121 ft 436 kts 241°
2026-05-08 02:09 22.93863 -152.74833 34120 ft 436 kts 241°
2026-05-08 02:10 22.90960 -152.80608 34120 ft 436 kts 241°
2026-05-08 02:10 22.88056 -152.86377 34121 ft 436 kts 241°
2026-05-08 02:11 22.85149 -152.92145 34112 ft 436 kts 241°
2026-05-08 02:11 22.82240 -152.97915 34110 ft 436 kts 241°
2026-05-08 02:12 22.79822 -153.02702 34111 ft 436 kts 241°
2026-05-08 02:12 22.76911 -153.08463 34101 ft 436 kts 241°
2026-05-08 02:13 22.73999 -153.14217 34101 ft 435 kts 241°
2026-05-08 02:13 22.71088 -153.19963 34100 ft 435 kts 241°
2026-05-08 02:14 22.68186 -153.25682 34100 ft 432 kts 241°
2026-05-08 02:14 22.65301 -153.31369 34099 ft 428 kts 241°
2026-05-08 02:15 22.62433 -153.37010 34103 ft 432 kts 241°
2026-05-08 02:15 22.59521 -153.42733 34102 ft 435 kts 241°
2026-05-08 02:16 22.56601 -153.48468 34100 ft 435 kts 241°
2026-05-08 02:16 22.53683 -153.54189 34100 ft 435 kts 241°
2026-05-08 02:17 22.50757 -153.59917 34100 ft 435 kts 241°
2026-05-08 02:17 22.47837 -153.65629 34101 ft 433 kts 241°
2026-05-08 02:18 22.44945 -153.71277 34096 ft 427 kts 241°
2026-05-08 02:18 22.42035 -153.76960 34103 ft 435 kts 241°
2026-05-08 02:19 22.39106 -153.82674 34100 ft 434 kts 241°
2026-05-08 02:19 22.36156 -153.88365 34099 ft 434 kts 239°
2026-05-08 02:20 22.33003 -153.93921 34100 ft 434 kts 239°
2026-05-08 02:20 22.29839 -153.99466 34100 ft 433 kts 239°
2026-05-08 02:21 22.26691 -154.04975 34098 ft 429 kts 239°
2026-05-08 02:21 22.23567 -154.10439 34102 ft 431 kts 239°
2026-05-08 02:22 22.20419 -154.15938 34102 ft 434 kts 239°
2026-05-08 02:22 22.17221 -154.21515 34100 ft 434 kts 239°
2026-05-08 02:23 22.14045 -154.27054 34100 ft 434 kts 239°
2026-05-08 02:23 22.10890 -154.32550 34100 ft 434 kts 239°
2026-05-08 02:24 22.07718 -154.38070 34099 ft 431 kts 238°
2026-05-08 02:24 22.04582 -154.43521 34097 ft 428 kts 238°
2026-05-08 02:25 22.01413 -154.49034 34111 ft 435 kts 238°
2026-05-08 02:25 21.98217 -154.54576 34110 ft 435 kts 238°
2026-05-08 02:26 21.95049 -154.60126 34109 ft 435 kts 241°
2026-05-08 02:26 21.92155 -154.65851 34110 ft 435 kts 242°
2026-05-08 02:27 21.89638 -154.70864 34110 ft 434 kts 242°
2026-05-08 02:27 21.86769 -154.76564 34109 ft 431 kts 242°
2026-05-08 02:28 21.83927 -154.82192 34107 ft 428 kts 242°
2026-05-08 02:28 21.81057 -154.87872 34114 ft 434 kts 242°
2026-05-08 02:29 21.78172 -154.93580 34111 ft 434 kts 242°
2026-05-08 02:29 21.75284 -154.99287 34109 ft 434 kts 242°
2026-05-08 02:30 21.72397 -155.04989 34101 ft 433 kts 242°
2026-05-08 02:30 21.69526 -155.10651 34082 ft 428 kts 242°
2026-05-08 02:31 21.68107 -155.13446 33286 ft 428 kts 242°
2026-05-08 02:31 21.66666 -155.16283 32014 ft 438 kts 242°
2026-05-08 02:31 21.65186 -155.19198 30647 ft 449 kts 242°
2026-05-08 02:31 21.63673 -155.22178 29250 ft 460 kts 242°
2026-05-08 02:32 21.62135 -155.25205 28244 ft 460 kts 241°
2026-05-08 02:32 21.60601 -155.28218 27353 ft 458 kts 241°
2026-05-08 02:32 21.59084 -155.31198 26559 ft 453 kts 241°
2026-05-08 02:32 21.57580 -155.34149 25835 ft 447 kts 241°
2026-05-08 02:33 21.56097 -155.37058 25134 ft 441 kts 241°
2026-05-08 02:33 21.54635 -155.39928 24449 ft 435 kts 241°
2026-05-08 02:33 21.53190 -155.42760 23744 ft 429 kts 240°
2026-05-08 02:33 21.51763 -155.45553 23073 ft 424 kts 240°
2026-05-08 02:34 21.50355 -155.48308 22423 ft 418 kts 240°
2026-05-08 02:34 21.48966 -155.51023 21755 ft 413 kts 241°
2026-05-08 02:34 21.47591 -155.53711 21105 ft 408 kts 241°
2026-05-08 02:34 21.46233 -155.56365 20474 ft 403 kts 241°
2026-05-08 02:35 21.44910 -155.58954 19899 ft 398 kts 241°
2026-05-08 02:35 21.43572 -155.61569 19350 ft 391 kts 241°
2026-05-08 02:35 21.42273 -155.64106 18807 ft 385 kts 241°
2026-05-08 02:35 21.40983 -155.66619 18289 ft 384 kts 241°
2026-05-08 02:36 21.39714 -155.69093 17766 ft 383 kts 241°
2026-05-08 02:36 21.38428 -155.71597 17223 ft 383 kts 241°
2026-05-08 02:36 21.37145 -155.74100 16668 ft 384 kts 241°
2026-05-08 02:36 21.35858 -155.76610 16131 ft 383 kts 241°
2026-05-08 02:37 21.34575 -155.79105 15617 ft 382 kts 241°
2026-05-08 02:37 21.33296 -155.81592 15094 ft 380 kts 241°
2026-05-08 02:37 21.32020 -155.84074 14566 ft 378 kts 241°
2026-05-08 02:37 21.30760 -155.86522 14045 ft 371 kts 241°
2026-05-08 02:38 21.29525 -155.88924 13536 ft 364 kts 241°
2026-05-08 02:38 21.28312 -155.91281 13033 ft 358 kts 241°
2026-05-08 02:38 21.27118 -155.93597 12572 ft 351 kts 241°
2026-05-08 02:38 21.25947 -155.95869 12101 ft 347 kts 241°
2026-05-08 02:39 21.24781 -155.98135 11611 ft 347 kts 241°
2026-05-08 02:39 21.23614 -156.00399 11135 ft 345 kts 241°
2026-05-08 02:39 21.22469 -156.02617 10849 ft 333 kts 241°
2026-05-08 02:39 21.21369 -156.04744 10633 ft 319 kts 241°
2026-05-08 02:40 21.20319 -156.06776 10458 ft 305 kts 241°
2026-05-08 02:40 21.19310 -156.08729 10222 ft 295 kts 241°
2026-05-08 02:40 21.18323 -156.10640 9812 ft 292 kts 241°
2026-05-08 02:40 21.17241 -156.12463 9371 ft 289 kts 228°
2026-05-08 02:41 21.15722 -156.13875 8958 ft 290 kts 216°
2026-05-08 02:41 21.14068 -156.15126 8551 ft 291 kts 214°
2026-05-08 02:41 21.12408 -156.16371 8178 ft 290 kts 215°
2026-05-08 02:41 21.10775 -156.17607 7809 ft 286 kts 215°
2026-05-08 02:42 21.09157 -156.18839 7463 ft 285 kts 215°
2026-05-08 02:42 21.07544 -156.20072 7125 ft 284 kts 215°
2026-05-08 02:42 21.05972 -156.21279 6985 ft 271 kts 216°
2026-05-08 02:42 21.04500 -156.22411 7039 ft 252 kts 216°
2026-05-08 02:43 21.03086 -156.23498 7087 ft 250 kts 216°
2026-05-08 02:43 21.01678 -156.24579 7047 ft 249 kts 215°
2026-05-08 02:43 21.00264 -156.25653 7029 ft 249 kts 215°
2026-05-08 02:43 20.98853 -156.26719 6712 ft 247 kts 215°
2026-05-08 02:44 20.97472 -156.27766 6357 ft 246 kts 215°
2026-05-08 02:44 20.96077 -156.28822 6016 ft 245 kts 215°
2026-05-08 02:44 20.94687 -156.29875 5697 ft 244 kts 215°
2026-05-08 02:44 20.93301 -156.30926 5394 ft 244 kts 215°
2026-05-08 02:45 20.91913 -156.31975 5154 ft 244 kts 215°
2026-05-08 02:45 20.90544 -156.33013 4986 ft 236 kts 215°
2026-05-08 02:45 20.89215 -156.34019 4965 ft 233 kts 215°
2026-05-08 02:45 20.87887 -156.35016 4978 ft 233 kts 214°
2026-05-08 02:46 20.86552 -156.36002 4986 ft 233 kts 214°
2026-05-08 02:46 20.85214 -156.36987 4993 ft 233 kts 214°
2026-05-08 02:46 20.83878 -156.37971 4997 ft 233 kts 214°
2026-05-08 02:46 20.82541 -156.38958 4999 ft 234 kts 214°
2026-05-08 02:47 20.81206 -156.39946 5005 ft 233 kts 214°
2026-05-08 02:47 20.79878 -156.40928 5002 ft 232 kts 214°
2026-05-08 02:47 20.78556 -156.41903 4872 ft 229 kts 214°
2026-05-08 02:47 20.77238 -156.42877 4611 ft 232 kts 214°
2026-05-08 02:48 20.75912 -156.43858 4572 ft 232 kts 214°
2026-05-08 02:48 20.74591 -156.44844 4491 ft 231 kts 215°
2026-05-08 02:48 20.73268 -156.45829 4360 ft 232 kts 214°
2026-05-08 02:48 20.71947 -156.46813 4243 ft 232 kts 214°
2026-05-08 02:49 20.70626 -156.47797 4180 ft 231 kts 214°
2026-05-08 02:49 20.69305 -156.48780 4185 ft 231 kts 215°
2026-05-08 02:49 20.67990 -156.49770 4191 ft 232 kts 218°
2026-05-08 02:49 20.66935 -156.51047 4185 ft 231 kts 246°
2026-05-08 02:50 20.66694 -156.52708 4194 ft 229 kts 281°
2026-05-08 02:50 20.67317 -156.54245 4206 ft 227 kts 306°
2026-05-08 02:50 20.68279 -156.55580 4207 ft 227 kts 313°
2026-05-08 02:50 20.69497 -156.56591 4193 ft 216 kts 340°
2026-05-08 02:51 20.70945 -156.56805 4189 ft 211 kts 10°
2026-05-08 02:51 20.72305 -156.56267 4032 ft 206 kts 31°
2026-05-08 02:51 20.73459 -156.55430 3804 ft 193 kts 37°
2026-05-08 02:51 20.74498 -156.54572 3580 ft 187 kts 38°
2026-05-08 02:52 20.75529 -156.53735 3331 ft 186 kts 37°
2026-05-08 02:52 20.76572 -156.52923 3064 ft 185 kts 36°
2026-05-08 02:52 20.77595 -156.52105 2796 ft 183 kts 35°
2026-05-08 02:52 20.78620 -156.51329 2550 ft 177 kts 34°
2026-05-08 02:53 20.79595 -156.50599 2335 ft 165 kts 34°
2026-05-08 02:53 20.80508 -156.49916 2112 ft 157 kts 34°
2026-05-08 02:53 20.81385 -156.49262 1884 ft 155 kts 34°
2026-05-08 02:53 20.82270 -156.48601 1705 ft 152 kts 35°
2026-05-08 02:54 20.83103 -156.47979 1498 ft 139 kts 34°
2026-05-08 02:54 20.83835 -156.47432 1294 ft 123 kts 34°
2026-05-08 02:54 20.84535 -156.46910 1139 ft 122 kts 34°
2026-05-08 02:54 20.85236 -156.46386 979 ft 123 kts 34°
2026-05-08 02:55 20.85938 -156.45864 811 ft 122 kts 33°
2026-05-08 02:55 20.87343 -156.44801 479 ft 124 kts 34°
2026-05-08 02:55 20.88055 -156.44264 288 ft 126 kts 33°
2026-05-08 02:56 20.88782 -156.43730 129 ft 127 kts 34°
2026-05-08 02:56 20.89483 -156.43210 51 ft 102 kts 34°
2026-05-08 02:56 20.89835 -156.42949 47 ft 37 kts 36°
2026-05-08 02:56 20.89972 -156.42867 48 ft 13 kts 342°
2026-05-08 02:57 20.90012 -156.42939 49 ft 13 kts 268°
2026-05-08 02:57 20.89956 -156.43018 50 ft 15 kts 214°
2026-05-08 02:57 20.89864 -156.43087 49 ft 17 kts 214°
2026-05-08 02:57 20.89774 -156.43153 50 ft 16 kts 215°
2026-05-08 02:58 20.89684 -156.43220 50 ft 12 kts 215°
2026-05-08 02:58 20.89618 -156.43269 49 ft 9 kts 215°
2026-05-08 02:58 20.89591 -156.43290 49 ft 7 kts 214°
2026-05-08 02:58 20.89568 -156.43327 50 ft 7 kts 270°
2026-05-08 02:59 20.89588 -156.43369 50 ft 7 kts 305°
2026-05-08 02:59 20.89611 -156.43405 49 ft 5 kts 305°
2026-05-08 02:59 20.89622 -156.43422 50 ft 1 kts 305°
2026-05-08 02:59 20.89624 -156.43425 50 ft 1 kts 305°
2026-05-08 03:00 20.89625 -156.43427 50 ft 0 kts 305°